DW4312 Weather Reports


Display with metric or nautical units.
time (UTC)temp
F
wind
direction
speed
MPH
gust
MPH
rain 1hr
in
rain 24hr
in
rain mn
in
humidity
%
barometer
mb
20220626234638 90 154 3.0 8.0 0.00 0.00 0.00 24 1015.3
20220626234122 91 158 4.0 8.0 0.00 0.00 0.00 24 1015.3
20220626233627 91 120 3.0 7.0 0.00 0.00 0.00 25 1015.2
20220626233135 91 118 5.0 8.0 0.00 0.00 0.00 24 1015.2
20220626232639 92 161 4.0 8.0 0.00 0.00 0.00 23 1015.2
20220626232128 91 173 4.0 8.0 0.00 0.00 0.00 24 1015.2
20220626231633 91 127 4.0 7.0 0.00 0.00 0.00 25 1015.2
20220626231140 91 114 3.0 8.0 0.00 0.00 0.00 25 1015.2
20220626230624 92 125 4.0 8.0 0.00 0.00 0.00 26 1015.2
20220626230128 92 141 4.0 7.0 0.00 0.00 0.00 27 1015.2
20220626225632 91 140 4.0 8.0 0.00 0.00 0.00 28 1015.2
20220626225137 92 153 5.0 7.0 0.00 0.00 0.00 29 1015.1
20220626224640 92 148 5.0 9.0 0.00 0.00 0.00 29 1015.1
20220626224141 92 101 3.0 9.0 0.00 0.00 0.00 26 1015.1
20220626223627 93 141 3.0 8.0 0.00 0.00 0.00 27 1015.2
20220626223131 94 157 5.0 8.0 0.00 0.00 0.00 27 1015.2
20220626222639 94 151 5.0 8.0 0.00 0.00 0.00 25 1015.2
20220626222125 94 145 4.0 9.0 0.00 0.00 0.00 25 1015.5
20220626221632 94 138 3.0 9.0 0.00 0.00 0.00 22 1015.5
20220626221137 95 103 3.0 6.0 0.00 0.00 0.00 21 1015.5
20220626220622 94 199 1.0 7.0 0.00 0.00 0.00 21 1016.5
20220626220130 94 116 4.0 7.0 0.00 0.00 0.00 22 1016.5
20220626215634 94 158 4.0 10.0 0.00 0.00 0.00 22 1016.5
20220626215139 94 151 6.0 10.0 0.00 0.00 0.00 25 1016.5
20220626214624 93 163 6.0 10.0 0.00 0.00 0.00 31 1016.5
20220626214129 93 130 6.0 9.0 0.00 0.00 0.00 31 1016.5
20220626213639 93 96 4.0 10.0 0.00 0.00 0.00 29 1015.8
20220626213123 93 124 6.0 10.0 0.00 0.00 0.00 34 1015.8
20220626212628 93 132 6.0 9.0 0.00 0.00 0.00 31 1015.8
20220626212133 93 129 4.0 9.0 0.00 0.00 0.00 32 1016.7
20220626211638 94 132 5.0 8.0 0.00 0.00 0.00 31 1016.7
20220626211123 94 138 5.0 8.0 0.00 0.00 0.00 28 1016.7
20220626210628 94 162 4.0 7.0 0.00 0.00 0.00 27 1016.8
20220626210133 94 161 0.0 9.0 0.00 0.00 0.00 20 1016.8
20220626205637 94 142 7.0 9.0 0.00 0.00 0.00 26 1016.8
20220626205142 94 140 3.0 8.0 0.00 0.00 0.00 28 1017.0
20220626204631 93 142 2.0 7.0 0.00 0.00 0.00 25 1017.0
20220626204134 94 86 2.0 7.0 0.00 0.00 0.00 26 1017.0
20220626203639 94 132 5.0 8.0 0.00 0.00 0.00 23 1016.2
20220626203124 94 115 3.0 7.0 0.00 0.00 0.00 23 1016.2
20220626202629 93 121 3.0 7.0 0.00 0.00 0.00 23 1016.2
20220626202133 92 141 3.0 10.0 0.00 0.00 0.00 25 1016.3
20220626201637 92 186 1.0 10.0 0.00 0.00 0.00 24 1016.3
20220626201139 92 128 4.0 9.0 0.00 0.00 0.00 24 1016.3
20220626200624 92 151 4.0 10.0 0.00 0.00 0.00 26 1016.6
20220626200129 91 144 5.0 10.0 0.00 0.00 0.00 31 1016.6
20220626195633 91 138 5.0 8.0 0.00 0.00 0.00 31 1016.6
20220626195122 91 169 3.0 10.0 0.00 0.00 0.00 32 1016.7
20220626194627 90 128 5.0 10.0 0.00 0.00 0.00 32 1016.7
20220626194135 90 137 5.0 9.0 0.00 0.00 0.00 33 1016.7
20220626193640 90 147 6.0 9.0 0.00 0.00 0.00 34 1016.8
20220626193125 90 114 5.0 8.0 0.00 0.00 0.00 33 1016.8
20220626192630 90 92 5.0 8.0 0.00 0.00 0.00 33 1016.8
20220626192135 90 149 5.0 10.0 0.00 0.00 0.00 33 1016.5
20220626191623 90 218 7.0 10.0 0.00 0.00 0.00 32 1016.5
20220626191131 90 106 5.0 8.0 0.00 0.00 0.00 23 1016.5
20220626190636 91 169 2.0 6.0 0.00 0.00 0.00 23 1016.7
20220626190125 91 125 3.0 7.0 0.00 0.00 0.00 22 1016.7
20220626185630 91 186 3.0 7.0 0.00 0.00 0.00 21 1016.7
20220626185135 90 121 2.0 7.0 0.00 0.00 0.00 20 1016.6
20220626184640 90 202 2.0 8.0 0.00 0.00 0.00 19 1016.6
20220626184125 90 184 4.0 8.0 0.00 0.00 0.00 20 1016.6
20220626183630 90 159 2.0 5.0 0.00 0.00 0.00 20 1016.4
20220626183135 90 159 3.0 5.0 0.00 0.00 0.00 18 1016.4
20220626182621 89 134 0.0 2.0 0.00 0.00 0.00 18 1016.4
20220626182129 89 189 0.0 2.0 0.00 0.00 0.00 17 1016.5
20220626181634 88 151 0.0 5.0 0.00 0.00 0.00 17 1016.5
20220626181139 88 200 2.0 5.0 0.00 0.00 0.00 18 1016.5
20220626180624 87 210 1.0 5.0 0.00 0.00 0.00 18 1016.6
20220626180129 87 210 0.0 4.0 0.00 0.00 0.00 19 1016.6
20220626175634 86 211 1.0 7.0 0.00 0.00 0.00 19 1016.6
20220626175119 85 193 5.0 7.0 0.00 0.00 0.00 20 1016.7
20220626174628 85 138 1.0 4.0 0.00 0.00 0.00 24 1016.7
20220626174136 84 146 0.0 4.0 0.00 0.00 0.00 26 1016.7
20220626173641 83 182 2.0 6.0 0.00 0.00 0.00 26 1016.7
20220626173126 82 182 1.0 5.0 0.00 0.00 0.00 26 1016.7
20220626172631 82 179 2.0 5.0 0.00 0.00 0.00 27 1016.7
20220626172140 82 150 1.0 6.0 0.00 0.00 0.00 25 1016.7
20220626171625 83 200 3.0 6.0 0.00 0.00 0.00 24 1016.7
20220626171130 83 200 4.0 6.0 0.00 0.00 0.00 24 1016.7
20220626170635 82 178 1.0 5.0 0.00 0.00 0.00 23 1016.6
20220626170139 82 188 2.0 5.0 0.00 0.00 0.00 23 1016.6
20220626165623 82 153 0.0 1.0 0.00 0.00 0.00 24 1016.6
20220626165129 82 128 0.0 5.0 0.00 0.00 0.00 23 1016.7
20220626164633 82 128 2.0 5.0 0.00 0.00 0.00 22 1016.7
20220626164139 82 138 2.0 5.0 0.00 0.00 0.00 20 1016.7
20220626163624 82 179 0.0 4.0 0.00 0.00 0.00 21 1016.5
20220626163133 81 137 1.0 4.0 0.00 0.00 0.00 19 1016.5
20220626162637 81 137 0.0 3.0 0.00 0.00 0.00 18 1016.5
20220626162141 81 137 1.0 3.0 0.00 0.00 0.00 18 1016.6
20220626161626 81 137 1.0 2.0 0.00 0.00 0.00 17 1016.6
20220626161134 80 137 0.0 2.0 0.00 0.00 0.00 17 1016.6
20220626160638 80 137 0.0 2.0 0.00 0.00 0.00 18 1016.6
20220626160123 79 130 0.0 3.0 0.00 0.00 0.00 18 1016.6
20220626155632 79 109 0.0 1.0 0.00 0.00 0.00 18 1016.6
20220626155140 79 109 0.0 1.0 0.00 0.00 0.00 18 1016.6
20220626154625 79 109 0.0 0.0 0.00 0.00 0.00 18 1016.6
20220626154134 78 109 0.0 1.0 0.00 0.00 0.00 18 1016.6
20220626153620 78 109 0.0 1.0 0.00 0.00 0.00 21 1016.4
20220626153128 77 109 0.0 2.0 0.00 0.00 0.00 21 1016.4
20220626152636 77 109 0.0 2.0 0.00 0.00 0.00 21 1016.4
20220626152140 76 109 0.0 0.0 0.00 0.00 0.00 21 1016.5
20220626151626 75 109 0.0 0.0 0.00 0.00 0.00 22 1016.5
20220626151134 75 109 0.0 0.0 0.00 0.00 0.00 21 1016.5
20220626150638 74 109 0.0 0.0 0.00 0.00 0.00 23 1016.6
20220626150123 73 109 0.0 1.0 0.00 0.00 0.00 24 1016.6
20220626145627 73 109 0.0 1.0 0.00 0.00 0.00 25 1016.6
20220626145136 72 109 0.0 0.0 0.00 0.00 0.00 28 1015.7
20220626144640 72 109 0.0 0.0 0.00 0.00 0.00 29 1015.7
20220626144125 72 109 0.0 0.0 0.00 0.00 0.00 32 1015.7
20220626143629 71 109 0.0 0.0 0.00 0.00 0.00 31 1016.3
20220626143131 71 109 0.0 0.0 0.00 0.00 0.00 30 1016.3
20220626142636 70 109 0.0 0.0 0.00 0.00 0.00 30 1016.3
20220626142141 69 109 0.0 0.0 0.00 0.00 0.00 31 1016.3
20220626141626 69 109 0.0 0.0 0.00 0.00 0.00 32 1016.3
20220626141131 68 109 0.0 0.0 0.00 0.00 0.00 31 1016.3
20220626140636 68 109 0.0 0.0 0.00 0.00 0.00 31 1016.2
20220626140124 68 109 0.0 0.0 0.00 0.00 0.00 30 1016.2
20220626135629 68 109 0.0 0.0 0.00 0.00 0.00 31 1016.2
20220626135133 68 109 0.0 1.0 0.00 0.00 0.00 30 1015.3
20220626134638 68 109 0.0 1.0 0.00 0.00 0.00 30 1015.3
20220626134123 68 109 0.0 0.0 0.00 0.00 0.00 31 1015.3
20220626133629 68 109 0.0 0.0 0.00 0.00 0.00 29 1015.9
20220626133134 68 109 0.0 0.0 0.00 0.00 0.00 30 1015.9
20220626132639 68 109 0.0 0.0 0.00 0.00 0.00 29 1015.9
20220626132122 68 109 0.0 2.0 0.00 0.00 0.00 29 1015.7
20220626131626 68 109 0.0 2.0 0.00 0.00 0.00 28 1015.7
20220626131132 68 109 0.0 0.0 0.00 0.00 0.00 28 1015.7
20220626130640 68 109 0.0 0.0 0.00 0.00 0.00 28 1015.5
20220626130125 68 109 0.0 0.0 0.00 0.00 0.00 28 1015.5
20220626125630 68 109 0.0 0.0 0.00 0.00 0.00 28 1015.5
20220626125133 68 109 0.0 2.0 0.00 0.00 0.00 27 1015.3
20220626124619 68 109 0.0 2.0 0.00 0.00 0.00 27 1015.3
20220626124126 68 109 1.0 2.0 0.00 0.00 0.00 28 1015.3
20220626123632 68 109 0.0 0.0 0.00 0.00 0.00 28 1015.1
20220626123140 68 109 0.0 0.0 0.00 0.00 0.00 28 1015.1
20220626122624 68 109 0.0 0.0 0.00 0.00 0.00 28 1015.1
20220626122129 68 109 0.0 0.0 0.00 0.00 0.00 28 1015.1
20220626121638 68 109 0.0 0.0 0.00 0.00 0.00 28 1015.1
20220626121122 68 109 0.0 2.0 0.00 0.00 0.00 27 1015.1
20220626120626 68 109 0.0 2.0 0.00 0.00 0.00 28 1015.1
20220626120132 68 109 1.0 2.0 0.00 0.00 0.00 28 1015.1
20220626115636 68 109 0.0 0.0 0.00 0.00 0.00 28 1015.1
20220626115120 68 109 0.0 0.0 0.00 0.00 0.00 30 1014.9
20220626114630 68 109 0.0 0.0 0.00 0.00 0.00 30 1014.9
20220626114132 68 109 0.0 1.0 0.00 0.00 0.00 29 1014.9
20220626113636 68 109 0.0 1.0 0.00 0.00 0.00 30 1014.8
20220626113140 69 109 0.0 0.0 0.00 0.00 0.00 30 1014.8
20220626112622 69 109 0.0 0.0 0.00 0.00 0.00 29 1014.8
20220626112127 69 109 0.0 2.0 0.00 0.00 0.00 29 1014.8
20220626111631 69 109 0.0 2.0 0.00 0.00 0.00 28 1014.8
20220626111136 69 109 0.0 1.0 0.00 0.00 0.00 28 1014.8
20220626110621 69 109 0.0 0.0 0.00 0.00 0.00 28 1014.8
20220626110123 69 109 0.0 0.0 0.00 0.00 0.00 28 1014.8
20220626105625 69 109 0.0 0.0 0.00 0.00 0.00 27 1014.8
20220626105133 69 109 0.0 0.0 0.00 0.00 0.00 27 1015.0
20220626104639 69 109 0.0 0.0 0.00 0.00 0.00 27 1015.0
20220626104123 69 109 0.0 0.0 0.00 0.00 0.00 27 1015.0
20220626103619 69 109 0.0 0.0 0.00 0.00 0.00 27 1014.8
20220626103130 69 109 0.0 0.0 0.00 0.00 0.00 28 1014.8
20220626102635 69 109 0.0 0.0 0.00 0.00 0.00 27 1014.8
20220626102141 69 109 0.0 2.0 0.00 0.00 0.00 28 1014.7
20220626101625 69 109 1.0 2.0 0.00 0.00 0.00 27 1014.7
20220626101130 69 109 0.0 0.0 0.00 0.00 0.00 27 1014.7
20220626100635 69 109 0.0 0.0 0.00 0.00 0.00 27 1014.9
20220626100139 69 109 0.0 0.0 0.00 0.00 0.00 27 1014.9
20220626095624 69 109 0.0 0.0 0.00 0.00 0.00 26 1014.9
20220626095129 69 109 0.0 0.0 0.00 0.00 0.00 26 1014.9
20220626094634 69 109 0.0 1.0 0.00 0.00 0.00 26 1014.9
20220626094123 69 109 0.0 2.0 0.00 0.00 0.00 26 1014.9
20220626093628 69 109 2.0 2.0 0.00 0.00 0.00 25 1015.1
20220626093136 69 109 0.0 1.0 0.00 0.00 0.00 26 1015.1
20220626092624 70 109 0.0 2.0 0.00 0.00 0.00 26 1015.1
20220626092126 70 109 1.0 2.0 0.00 0.00 0.00 26 1015.1
20220626091631 70 109 0.0 3.0 0.00 0.00 0.00 26 1015.1
20220626091138 70 109 0.0 3.0 0.00 0.00 0.00 26 1015.1
20220626090624 70 109 2.0 3.0 0.00 0.00 0.00 26 1015.0
20220626090132 70 109 0.0 4.0 0.00 0.00 0.00 26 1015.0
20220626085637 70 109 1.0 4.0 0.00 0.00 0.00 26 1015.0
20220626085129 70 109 0.0 4.0 0.00 0.00 0.00 26 1015.3
20220626084634 70 109 1.0 4.0 0.00 0.00 0.00 26 1015.3
20220626084139 69 110 2.0 3.0 0.00 0.00 0.00 26 1015.3
20220626083625 69 151 0.0 0.0 0.00 0.00 0.00 27 1015.0
20220626083133 69 151 0.0 1.0 0.00 0.00 0.00 27 1015.0
20220626082638 69 151 0.0 2.0 0.00 0.00 0.00 26 1015.0
20220626082122 69 151 1.0 2.0 0.00 0.00 0.00 27 1015.1
20220626081627 69 151 0.0 0.0 0.00 0.00 0.00 28 1015.1
20220626081132 69 151 0.0 0.0 0.00 0.00 0.00 29 1015.1
20220626080635 70 151 0.0 0.0 0.00 0.00 0.00 29 1015.2
20220626080123 70 151 0.0 0.0 0.00 0.00 0.00 29 1015.2
20220626075628 70 151 0.0 0.0 0.00 0.00 0.00 29 1015.2
20220626075133 70 151 0.0 0.0 0.00 0.00 0.00 29 1015.2
20220626074622 70 151 0.0 0.0 0.00 0.00 0.00 29 1015.2
20220626074130 70 151 0.0 0.0 0.00 0.00 0.00 28 1015.2
20220626073632 70 151 0.0 0.0 0.00 0.00 0.00 27 1015.4
20220626073137 69 151 0.0 0.0 0.00 0.00 0.00 28 1015.4
20220626072639 69 151 0.0 2.0 0.00 0.00 0.00 28 1015.4
20220626072140 69 151 1.0 2.0 0.00 0.00 0.00 28 1015.3
20220626071625 70 151 0.0 0.0 0.00 0.00 0.00 31 1015.3
20220626071130 70 151 0.0 0.0 0.00 0.00 0.00 31 1015.3
20220626070639 70 151 0.0 0.0 0.00 0.00 0.00 31 1015.3
20220626070122 70 151 0.0 0.0 0.00 0.00 0.00 31 1015.3
20220626065627 71 151 0.0 0.0 0.00 0.00 0.00 32 1015.3
20220626065131 71 151 0.0 0.0 0.00 0.00 0.00 35 1015.2
20220626064636 72 151 0.0 0.0 0.00 0.00 0.00 36 1015.2
20220626064124 72 151 0.0 0.0 0.00 0.00 0.00 38 1015.2
20220626063629 72 151 0.0 0.0 0.00 0.00 0.00 35 1015.4
20220626063134 72 151 0.0 0.0 0.00 0.00 0.00 35 1015.4
20220626062639 73 151 0.0 0.0 0.00 0.00 0.00 33 1015.4
20220626062123 73 151 0.0 0.0 0.00 0.00 0.00 32 1015.4
20220626061628 73 151 0.0 0.0 0.00 0.00 0.00 31 1015.4
20220626061136 73 151 0.0 0.0 0.00 0.00 0.00 31 1015.4
20220626060624 73 151 0.0 0.0 0.00 0.00 0.00 30 1015.3
20220626060131 73 151 0.0 0.0 0.00 0.00 0.00 29 1015.3
20220626055636 74 151 0.0 0.0 0.00 0.00 0.00 28 1015.3
20220626055121 74 151 0.0 0.0 0.00 0.00 0.00 28 1015.2
20220626054626 74 151 0.0 0.0 0.00 0.00 0.00 28 1015.2
20220626054131 74 151 0.0 0.0 0.00 0.00 0.00 28 1015.2
20220626053636 74 151 0.0 1.0 0.00 0.00 0.00 26 1015.3
20220626053140 74 151 0.0 1.0 0.00 0.00 0.00 24 1015.3
20220626052629 74 151 0.0 0.0 0.00 0.00 0.00 25 1015.3
20220626052134 74 151 0.0 1.0 0.00 0.00 0.00 25 1015.2
20220626051639 74 151 0.0 2.0 0.00 0.00 0.00 25 1015.2
20220626051123 75 151 1.0 2.0 0.00 0.00 0.00 25 1015.2
20220626050628 75 151 0.0 0.0 0.00 0.00 0.00 25 1014.9
20220626050136 75 151 0.0 0.0 0.00 0.00 0.00 24 1014.9
20220626045621 75 151 0.0 0.0 0.00 0.00 0.00 24 1014.9
20220626045129 76 151 0.0 0.0 0.00 0.00 0.00 23 1014.6
20220626044634 76 151 0.0 0.0 0.00 0.00 0.00 23 1014.6
20220626044119 76 151 0.0 0.0 0.00 0.00 0.00 23 1014.6
20220626043631 76 151 0.0 0.0 0.00 0.00 0.00 23 1014.6
20220626043136 76 151 0.0 2.0 0.00 0.00 0.00 23 1014.6
20220626042621 77 151 0.0 2.0 0.00 0.00 0.00 23 1014.6
20220626042126 77 151 1.0 2.0 0.00 0.00 0.00 22 1014.6
20220626041633 77 151 0.0 0.0 0.00 0.00 0.00 23 1014.6
20220626041138 77 151 0.0 0.0 0.00 0.00 0.00 22 1014.6
20220626040623 77 151 0.0 0.0 0.00 0.00 0.00 22 1014.3
20220626040131 78 151 0.0 0.0 0.00 0.00 0.00 23 1014.3
20220626035636 78 151 0.0 0.0 0.00 0.00 0.00 22 1014.3
20220626035120 78 151 0.0 0.0 0.00 0.00 0.00 21 1013.9
20220626034633 78 151 0.0 0.0 0.00 0.00 0.00 23 1013.9
20220626034138 79 151 0.0 0.0 0.00 0.00 0.00 23 1013.9
20220626033623 79 151 0.0 0.0 0.00 0.00 0.00 21 1014.2
20220626033128 80 151 0.0 0.0 0.00 0.00 0.00 21 1014.2
20220626032633 80 151 0.0 0.0 0.00 0.00 0.00 23 1014.2
20220626032135 81 151 0.0 0.0 0.00 0.00 0.00 22 1014.0
20220626031640 81 151 0.0 0.0 0.00 0.00 0.00 22 1014.0
20220626031124 82 151 0.0 0.0 0.00 0.00 0.00 21 1014.0
20220626030630 83 151 0.0 0.0 0.00 0.00 0.00 20 1013.8
20220626030134 83 151 0.0 0.0 0.00 0.00 0.00 19 1013.8
20220626025623 84 151 0.0 0.0 0.00 0.00 0.00 19 1013.8
20220626025128 84 151 0.0 0.0 0.00 0.00 0.00 18 1013.9
20220626024632 84 151 0.0 0.0 0.00 0.00 0.00 18 1013.9
20220626024138 84 151 0.0 0.0 0.00 0.00 0.00 18 1013.9
20220626023622 84 151 0.0 0.0 0.00 0.00 0.00 18 1014.0
20220626023128 85 151 0.0 1.0 0.00 0.00 0.00 18 1014.0
20220626022632 85 151 0.0 1.0 0.00 0.00 0.00 17 1014.0
20220626022137 85 151 0.0 0.0 0.00 0.00 0.00 16 1013.9
20220626021624 85 151 0.0 0.0 0.00 0.00 0.00 15 1013.9
20220626021129 86 151 0.0 1.0 0.00 0.00 0.00 14 1013.9
20220626020621 86 151 0.0 1.0 0.00 0.00 0.00 16 1013.8
20220626020127 85 151 0.0 0.0 0.00 0.00 0.00 13 1013.8
20220626015632 85 151 0.0 0.0 0.00 0.00 0.00 14 1013.8
20220626015140 86 150 0.0 3.0 0.00 0.00 0.00 13 1013.8
20220626014622 86 151 1.0 3.0 0.00 0.00 0.00 13 1013.8
20220626014126 86 151 0.0 5.0 0.00 0.00 0.00 13 1013.8
20220626013628 86 184 3.0 5.0 0.00 0.00 0.00 11 1012.9
20220626013133 87 129 0.0 5.0 0.00 0.00 0.00 12 1012.9
20220626012619 87 122 0.0 5.0 0.00 0.00 0.00 11 1012.9
20220626012126 87 122 3.0 5.0 0.00 0.00 0.00 11 1013.7
20220626011628 88 169 1.0 6.0 0.00 0.00 0.00 10 1013.7
20220626011137 88 153 0.0 6.0 0.00 0.00 0.00 10 1013.7
20220626010621 88 159 0.0 1.0 0.00 0.00 0.00 10 1013.7
20220626010125 88 159 0.0 4.0 0.00 0.00 0.00 8 1013.7
20220626005633 88 138 0.0 4.0 0.00 0.00 0.00 10 1013.7
20220626005138 88 130 0.0 4.0 0.00 0.00 0.00 8 1013.6
20220626004622 88 130 1.0 4.0 0.00 0.00 0.00 9 1013.6
20220626004126 88 174 0.0 6.0 0.00 0.00 0.00 10 1013.6
20220626003631 89 190 3.0 6.0 0.00 0.00 0.00 9 1013.5
20220626003139 89 140 0.0 7.0 0.00 0.00 0.00 7 1013.5
20220626002623 89 122 0.0 5.0 0.00 0.00 0.00 7 1013.5
20220626002135 89 130 0.0 6.0 0.00 0.00 0.00 8 1013.6
20220626001638 90 134 0.0 5.0 0.00 0.00 0.00 8 1013.6
20220626001140 90 130 0.0 9.0 0.00 0.00 0.00 8 1013.6
20220626000621 90 139 3.0 9.0 0.00 0.00 0.00 7 1013.5
20220626000129 90 121 0.0 7.0 0.00 0.00 0.00 8 1013.5
20220625235634 91 115 3.0 6.0 0.00 0.00 0.00 8 1013.5
20220625235119 91 117 1.0 5.0 0.00 0.00 0.00 7 1013.6